Back to catalog

STARLINK-32400

AliveCommunicationsVLEO
NORAD 61669·PAYLOAD·🇺🇸 United States

Launched Oct 26, 2024 from Cape Canaveral Space Force Station

Loading…

Next Passes (next 24 hours)

TLE

FreshSource: CelesTrak SupGP

Epoch: Sep 14, 2026, 22:55 UTC

1 61669C 24193J   26257.95534722  .00048286  00000+0  14268-2 0  2573
2 61669  53.1565 287.2792 0001198  93.8740 101.7035 15.34361790    19

Track STARLINK-32400 in real time with AllMySat

Download on the App Store